Location: ????????
(55.0097°N, 38.5678°E)
Time: 00:15:54
(UTC+00:00)

NOSS 3-1 (C) - Pass Details

Date: 18 December 2025
Orbit: 618 x 1583 km, 63.4° (Epoch: 10 January)

Event Time Altitude Azimuth Distance (km) Brightness Sun altitude
Rises 15:19:17 0° 175° (S) 2,956 6.2 -18.5°
Reaches altitude 10° 15:21:58 10° 158° (SSE) 2,126 5.2 -18.9°
Enters shadow 15:23:57 17° 134° (SE) 1,749 4.6 -19.2°
